Regional Weather Roundup
Issued by NWS

Home | Current Version | Previous Version | Graphics & Text | Print | Product List | Glossary On
Versions: 1 2 3 4 5 6 7 8 9 10 11 12 13 14 15 16 17 18 19 20 21 22 23 24 25 26 27 28 29 30 31 32 33 34 35 36 37 38 39 40 41 42 43 44 45 46 47 48 49 50
000
ASUS43 KMPX 281010
RWRMN
WEATHER ROUNDUP FOR MINNESOTA
NATIONAL WEATHER SERVICE TWIN CITIES/CHANHASSEN MN
500 AM CDT THU MAY 28 2015


NOTE: "FAIR" INDICATES FEW OR NO CLOUDS BELOW 12,000 FEET WITH NO
SIGNIFICANT WEATHER AND/OR OBSTRUCTIONS TO VISIBILITY. N/A MEANS
CURRENT SKY AND/OR WEATHER CONDITIONS ARE NOT AVAILABLE.

MNZ060>063-068>070-281100-
   Twin Cities Metro

CITY           SKY/WX    TMP DP  RH WIND       PRES   REMARKS
TWIN CITIES    PTCLDY    63  54  72 SE3       30.04R
ST PAUL        CLEAR     60  58  92 E5        30.04R
CRYSTAL        CLEAR     58  55  90 CALM      30.02R
BLAINE         CLEAR     61  57  88 S5        30.03R
LAKEVILLE      CLEAR     63  54  72 S5        30.05R
EDEN PRAIRIE   CLEAR     62  53  72 S7        30.03R
SOUTH ST PAUL  CLEAR     60  57  89 CALM      30.05R
LAKE ELMO      FAIR      55  55 100 CALM      30.05R
$$
MNZ001>005-007-008-013>017-022>024-027-028-281100-
   Northwest Minnesota

CITY           SKY/WX    TMP DP  RH WIND       PRES   REMARKS
BEMIDJI        MOCLDY    56  51  85 E7        29.98F
HALLOCK        LGT RAIN  57  52  82 N3        29.95R
ROSEAU         CLOUDY    55  48  76 E3        29.97S
WARROAD        MOCLDY    55  50  82 E6        29.98F
THIEF RVR FALL CLOUDY    63  48  59 E7        29.95S
CROOKSTON      RAIN      61  55  82 W9        29.99R
FOSSTON        CLOUDY    61  50  67 SE7       29.95F
DETROIT LAKES  CLOUDY    63  54  72 S7        29.96F
MOORHEAD       LGT RAIN  64  57  77 CALM      29.95F
PARK RAPIDS    CLOUDY    62  50  64 SE7       29.98F
MAHNOMEN       LGT RAIN  62  53  72 S6        29.96R
$$
MNZ006-009>011-018-025>026-281100-
   North Central Minnesota

CITY           SKY/WX    TMP DP  RH WIND       PRES   REMARKS
BAUDETTE       PTCLDY    53  47  79 SE7       29.99F
FLAG ISLAND    MOCLDY    57  48  72 SE8       29.98F
INTL FALLS     CLEAR     50  46  86 SE6       30.03S
WASKISH        PTCLDY    52  46  82 CALM      29.99F
BIG FORK       CLEAR     55  48  76 SE5       30.03S
LONGVILLE      MOCLDY    52  52 100 SE5       30.01S
GRAND RAPIDS   CLEAR     54  45  71 SE7       30.05S
CRANE LAKE     CLEAR     43  43 100 CALM      30.08S
ORR            CLEAR     50  45  81 CALM      30.03S
COOK           CLEAR     54  45  71 SE7       30.06F
WALKER         FAIR      56  53  89 CALM      30.00S
$$
MNZ012-019>021-037-281100-
   Northeast Minnesota

CITY           SKY/WX    TMP DP  RH WIND       PRES   REMARKS
DULUTH         CLEAR     50  42  74 E9        30.08S
HIBBING        CLEAR     43  41  93 CALM      30.06S
EVELETH        CLEAR     50  43  76 E3        30.09S
DULUTH HARBOR  CLEAR     45  43  93 NE21      30.12R
TWO HARBORS    CLEAR     52  43  71 NE9       30.10R
SILVER BAY     CLEAR     46  39  76 NE10G16   30.12R
GRAND MARAIS     N/A     42  39  89 CALM      30.16R
G MARAIS ARPRT CLEAR     41  36  81 NE6       30.15S
$$
MNZ029>031-032-039>041-046>048-054>057-064-281100-
   West Central Minnesota

CITY           SKY/WX    TMP DP  RH WIND       PRES   REMARKS
FERGUS FALLS   CLOUDY    68  54  60 W14G21    29.97R
WHEATON        CLOUDY    63  54  72 CALM      29.97R
MORRIS         CLOUDY    63  54  72 S8        29.96S
ALEXANDRIA     CLOUDY    65  51  60 S10       30.00S
ELBOW LAKE     FAIR      64  53  68 SE8       29.96S
WADENA         CLOUDY    61  54  77 SE3       29.97F
GLENWOOD       MOCLDY    63  54  72 S7        30.00S
APPLETON       CLOUDY    66  50  55 S8        29.97S
BENSON         CLOUDY    64  52  63 S6        29.99R
ORTONVILLE     CLOUDY    63  54  72 S3        29.96F
MADISON        CLOUDY    63  50  63 SW9       29.98S
WILLMAR        FAIR      63  54  72 SE3       30.02S
$$
MNZ033>034-036-042>043-049>051-058-059-281100-
   Central Minnesota

CITY           SKY/WX    TMP DP  RH WIND       PRES   REMARKS
ST CLOUD       PTCLDY    54  53  97 SE5       30.01S
SAUK CENTRE    FAIR      61  54  78 SE6       30.00S
PAYNESVILLE    PTCLDY    59  53  81 SE7       30.01S
AITKIN         PTCLDY    54  48  82 E3        30.02S
PINE RIVER     MOCLDY    57  54  88 SE6       30.04S
BRAINERD       MOCLDY    58  53  84 CALM      30.01F
STAPLES        CLOUDY    57  52  82 CALM      29.99S
LONG PRAIRIE   HAZE      61  54  77 SE5       30.00S VSB 1/2
LITTLE FALLS   PTCLDY    55  50  82 SE5       29.99F
LITCHFIELD     PTCLDY    64  57  77 CALM      30.02S
BUFFALO        CLEAR     62  54  73 SE3       30.03R
MAPLE LAKE     CLEAR     56  55  98 CALM      30.03R
$$
MNZ037-044-045-052-053-281100-
   East Central Minnesota

CITY           SKY/WX    TMP DP  RH WIND       PRES   REMARKS
PRINCETON      PTCLDY    54  54 100 CALM      30.02S
MORA           CLEAR     52  50  93 CALM      30.06R
CAMBRIDGE      CLEAR     59  50  72 CALM      30.01S
RUSH CITY      PTCLDY    53  52  97 NE3       30.04S
MOOSE LAKE     CLEAR     48  43  81 NE6       30.06S
HINCKLEY       FAIR      52  48  87 NE5       30.05F
CLOQUET        CLEAR     48  41  76 E8        30.08S
MCGREGOR       CLEAR     50  46  87 E6        30.05F
$$
MNZ071>073-080-081-089-090-097-098-281100-
   Southwest Minnesota

CITY           SKY/WX    TMP DP  RH WIND       PRES   REMARKS
MONTEVIDEO     MOCLDY    63  52  67 SW7       30.00S
GRANITE FALLS  MOCLDY    58  51  77 CALM      30.01F
CANBY          MOCLDY    67  48  50 SW9       30.00S
MARSHALL       PTCLDY    64  48  55 SW14      30.00S
REDWOOD FALLS  PTCLDY    63  52  67 S9        30.01S
OLIVIA         PTCLDY    59  48  67 S5        30.01S
PIPESTONE      MOCLDY    63  50  63 S8        30.03F
WINDOM         PTCLDY    61  52  72 CALM      30.05S
WORTHINGTON    CLEAR     61  48  63 S10       30.06S
JACKSON        CLEAR     59  52  77 S7        30.07S
TRACY          PTCLDY    66  51  58 SW13      30.02F
SLAYTON        FAIR      62  49  63 S10       30.05S
$$
MNZ065>067-074>077-082>085-091>093-281100-
   South Central Minnesota

CITY           SKY/WX    TMP DP  RH WIND       PRES   REMARKS
MANKATO        CLEAR     63  54  72 S6        30.06R
NEW ULM        CLEAR     61  54  77 S6        30.04R
ST JAMES       CLEAR     63  55  77 SE6       30.06R
FAIRMONT       CLEAR     57  50  77 S7        30.06R
GLENCOE        PTCLDY    62  56  82 CALM      30.03R
FARIBAULT      CLEAR     61  55  82 S3        30.07R
OWATONNA       CLEAR     63  54  72 S8        30.08R
WASECA         CLEAR     59  52  77 S5        30.08S
ALBERT LEA     CLEAR     63  55  77 S5        30.08S
$$
MNZ078>079-086>088-094>096-281100-
   Southeast Minnesota

CITY           SKY/WX    TMP DP  RH WIND       PRES   REMARKS
ROCHESTER      CLEAR     60  55  83 S8        30.11R
RED WING       CLEAR     57  55  94 E3        30.06R
STANTON        CLEAR     62  54  75 S5        30.05R
DODGE CENTER   CLEAR     63  55  77 S9        30.09R
WINONA         CLEAR     57  55  94 CALM      30.10R
AUSTIN         CLEAR     59  55  88 S3        30.09S
PRESTON        CLEAR     61  55  81 SW9       30.12R
$$
ABBREVIATIONS USED IN REMARKS
   TC - TEMPERATURES IN CELSIUS
  WCI - WIND CHILL INDEX
   HX - HEAT INDEX
  VSB - VISIBILITY
$$


USA.gov is the U.S. government's official web portal to all federal, state and local government web resources and services.